BEIDOU-2 IGSO-7

Last updated on Sun Dec 07 2025 00:02:49 GMT+0000 (Coordinated Universal Time)

1 43539U 18057A 25340.44842318 -.00000058 00000+0 00000+0 0 9995 2 43539 55.1738 164.7265 0092487 235.2008 308.2533 1.00258736 27191
UTC large
Height (km)
Speed (km/s)
/
Latitude / Longitude
Inclination (degrees)
Orbital Period (minutes)
Azimuth
Elevation
Range (km)
Doppler Factor

Next 0 passes for location: London (51.5072 / 0.1276)

Sorry there are no passes over London.